Regional Weather Roundup
Issued by NWS

Home | Current Version | Previous Version | Graphics & Text | Print | Product List | Glossary On
Versions: 1 2 3 4 5 6 7 8 9 10 11 12 13 14 15 16 17 18 19 20 21 22 23 24 25 26 27 28 29 30 31 32 33 34 35 36 37 38 39 40 41 42 43 44 45 46 47 48 49 50
000
ASUS43 KDMX 070101
RWRIA

WEATHER ROUNDUP FOR IOWA
NATIONAL WEATHER SERVICE DES MOINES IA
700 PM CST TUE DEC 06 2016

NOTE: "FAIR" INDICATES FEW OR NO CLOUDS BELOW 12,000 FEET WITH NO
SIGNIFICANT WEATHER AND/OR OBSTRUCTIONS TO VISIBILITY.

* - THESE STATIONS ARE NOT NWS STATIONS...THUS NOT UNDER NWS
QUALITY CONTROL.  THEY ALSO DO NOT REPORT WEATHER SUCH
AS PRECIPITATION OR FOG.

IAZ001>003-012>014-020>022-031>034-043>046-070200-
   NORTHWEST IOWA

CITY           SKY/WX    TMP DP  RH WIND       PRES   REMARKS
CARROLL *      CLEAR     23  16  74 W13       30.00R WCI  11
SIOUX CITY     CLEAR     22  11  62 W7        30.06R WCI  13
SPENCER        CLEAR     18  11  74 W32G40    29.94R WCI  -2
STORM LAKE *   CLEAR     19  10  68 W20G28    29.97R WCI   4
$$

IAZ055>058-069>071-079>083-090>094-070200-
   SOUTHWEST IOWA

CITY           SKY/WX    TMP DP  RH WIND       PRES   REMARKS
CLARINDA *     CLEAR     28  14  54 W3        30.09R
HARLAN  *      CLEAR     23  14  68 W8        30.07R WCI  14
LAMONI         CLEAR     27  14  58 W10       30.03R WCI  17
$$

IAZ047>049-059>061-072>074-084-070200-
   CENTRAL IOWA

CITY           SKY/WX    TMP DP  RH WIND       PRES   REMARKS
AMES           CLEAR     26  19  74 W13       30.00R WCI  15
DES MOINES     PTCLDY    28  14  55 W9        30.01R WCI  19
GRINNELL*      CLEAR     28  18  68 W13       29.99R WCI  17
MARSHALLTOWN   CLEAR     25  17  72 W14       29.97R WCI  13
PELLA *        CLEAR     29  17  60 W13       30.02R WCI  19
PERRY *          N/A     26  20  80 W10       30.01R WCI  15
$$

IAZ004>006-015-016-023>025-035-036-070200-
   NORTH CENTRAL IOWA

CITY           SKY/WX    TMP DP  RH WIND       PRES   REMARKS
CLARION *      CLEAR     23  14  68 W22G29    29.95S WCI   8
ESTHERVILLE    PTCLDY    18  12  77 W21G31    29.90R WCI   1
FORT DODGE *   CLEAR     23  10  58 W9        29.97R WCI  13
MASON CITY     CLEAR     22  13  68 W24G30    29.91R WCI   5
WEBSTER CITY * CLEAR     25  14  63 W23       29.95R WCI  10
IOWA FALLS *     N/A     25  19  76 W15       29.95R WCI  13
$$

IAZ007>011-017>019-026>030-037>042-050>054-066-070200-
   NORTHEAST IOWA

CITY           SKY/WX    TMP DP  RH WIND       PRES   REMARKS
CEDAR RAPIDS   CLEAR     26  20  77 W14       29.96R WCI  14
CHARLES CITY * CLEAR     23  16  74 W18G29    29.90R WCI   9
DECORAH *      CLOUDY    23  16  74 W10G22    29.86R WCI  12
DUBUQUE        CLOUDY    26  18  71 W20       29.91R WCI  12
WATERLOO       CLEAR     25  16  68 W17       29.93R WCI  12
$$

IAZ064-065-067-068-078-070200-
   EAST CENTRAL IOWA

CITY           SKY/WX    TMP DP  RH WIND       PRES   REMARKS
DAVENPORT      CLEAR     28  22  78 W10       29.97R WCI  19
IOWA CITY      CLEAR     28  20  71 W12       30.00R WCI  18
MUSCATINE *    CLEAR     28  19  69 SW8       30.01R WCI  20
QUAD CITIES    CLEAR     29  20  69 W9        29.97R WCI  20
$$

IAZ062-063-075>077-085>089-095>099-070200-
   SOUTHEAST IOWA

CITY           SKY/WX    TMP DP  RH WIND       PRES   REMARKS
BURLINGTON     CLEAR     31  21  66 W10       30.01R WCI  22
KEOKUK *       CLEAR     30  21  69 W9        30.03R WCI  22
OTTUMWA        CLEAR     28  17  63 W8        30.02R WCI  20
$$

ABBREVIATIONS USED IN REMARKS
   TC - TEMPERATURES IN CELSIUS
  WCI - WIND CHILL INDEX
   HX - HEAT INDEX
  VSB - VISIBILITY
$$




USA.gov is the U.S. government's official web portal to all federal, state and local government web resources and services.